FLOCK 4Y 20

导读 | 星芒AI

FLOCK 4Y 20 是由 Planet Labs 运营的 Dove 系列小型地球观测卫星之一,属于 Flock 4Y 卫星群。该卫星主要用于高分辨率光学成像,支持全球范围内的地表监测,广泛应用于环境监测、农业管理、灾害响应等领域。Flock 4Y 20 采用低成本、模块化设计,具备较高的图像采集频率和灵活性,是 Planet 公司构建大规模卫星星座计划的一部分,助力实现每日全球重访能力。

基本信息
目录编号:
55063
目录名称:
FLOCK 4Y 20
国际标识:
2023-001BG
轨道中心:
EARTH
卫星名称:
FLOCK 4Y 20
卫星全名:
--
卫星状态:
已陨落 最后检测时间 2025-09-13
发射日期:
2023-01-03 UTC
国别 :
美国 (US)
星等 :
--
轨道信息
数据来源 国际轨道数据
星历时间: 2025-09-12T23:47:48+0800
轨道信息已过期39天
半长轴: 6588.041km
偏心率: 0.0013275
轨道倾角: 97.342°
近地点辐角 273.705°
升交点赤经 333.819°
平近点角 86.272°
近地点: 201.16km
远地点: 218.652km
周期: 88.694分钟
每日圈数: 16.235602
详细信息
使用方式:
暂无